Location: Des Moines
(41.6010°N, 93.6090°W)
Time: 08:11:52
(UTC-05:00)

N. Korean satellite - Visible Passes

Search period start: 22 October 2020 00:00
Search period end: 01 November 2020 00:00
Orbit: 453 x 505 km, 97.2° (Epoch: 22 October)

Date Brightness Start Highest point End Pass type
(mag) Time Alt. Az. Time Alt. Az. Time Alt. Az.
22 Oct 9.9 05:49:49 10° ENE 05:51:34 13° E 05:53:18 10° ESE visible
23 Oct 6.3 06:55:34 10° N 06:59:00 74° WNW 07:02:23 10° SSW visible
23 Oct 10.2 19:05:50 10° WSW 19:07:31 13° W 19:09:12 10° WNW visible
24 Oct 7.7 06:29:35 10° NNE 06:32:52 45° E 06:36:09 10° S visible
25 Oct 9.3 06:04:01 10° NE 06:06:39 20° E 06:09:16 10° SE visible
26 Oct 6.7 07:10:39 10° N 07:13:56 44° WNW 07:17:11 10° SSW visible
27 Oct 6.6 06:44:26 10° NNE 06:47:51 77° E 06:51:14 10° S visible
27 Oct 9.9 18:53:53 10° SW 18:56:18 17° W 18:58:42 10° NW visible
28 Oct 8.4 06:18:34 10° NNE 06:21:40 32° E 06:24:45 10° SSE visible
29 Oct 9.8 05:53:20 10° NE 05:55:24 15° E 05:57:27 10° SE visible
30 Oct 6.4 06:59:22 10° N 07:02:46 64° WNW 07:06:09 10° SSW visible
30 Oct 10.4 19:10:20 10° WSW 19:11:21 11° W 19:12:22 10° WNW visible
31 Oct 7.3 06:33:16 10° NNE 06:36:37 52° E 06:39:58 10° S visible
31 Oct 9.5 18:42:10 10° SSW 18:45:02 23° W 18:47:52 10° NW visible
